| time (UTC) | temp F | wind direction | speed MPH | gust MPH | rain 1hr in | rain 24hr in | rain mn in | humidity % | barometer mb |
| 20260508135321 | 52 | 263 | 1.0 | 5.0 | 0.00 | 0.00 | 0.00 | 59 | 1017.5 |
| 20260508135049 | 52 | 223 | 1.0 | 4.0 | 0.00 | 0.00 | 0.00 | 65 | 1017.4 |
| 20260508134511 | 51 | 266 | 0.0 | 4.0 | 0.00 | 0.00 | 0.00 | 70 | 1018.2 |
| 20260508134312 | 51 | 251 | 0.0 | 4.0 | 0.00 | 0.00 | 0.00 | 72 | 1017.5 |
| 20260508133806 | 51 | 286 | 0.0 | 0.0 | 0.00 | 0.00 | 0.00 | 75 | 1017.4 |
| 20260508133529 | 51 | 306 | 0.0 | 0.0 | 0.00 | 0.00 | 0.00 | 77 | 1017.3 |
| 20260508133046 | 50 | 292 | 0.0 | 0.0 | 0.00 | 0.00 | 0.00 | 79 | 1018.1 |
| 20260508132752 | 50 | 292 | 0.0 | 0.0 | 0.00 | 0.00 | 0.00 | 81 | 1017.3 |
| 20260508132246 | 49 | 292 | 0.0 | 0.0 | 0.00 | 0.00 | 0.00 | 82 | 1017.1 |
| 20260508131735 | 49 | 292 | 0.0 | 0.0 | 0.00 | 0.00 | 0.00 | 83 | 1017.0 |
| 20260508131509 | 48 | 291 | 0.0 | 0.0 | 0.00 | 0.00 | 0.00 | 83 | 1017.8 |
| 20260508131214 | 48 | 267 | 0.0 | 0.0 | 0.00 | 0.00 | 0.00 | 85 | 1016.9 |
| 20260508130937 | 47 | 230 | 0.0 | 0.0 | 0.00 | 0.00 | 0.00 | 85 | 1017.3 |
| 20260508130151 | 47 | 33 | 0.0 | 0.0 | 0.00 | 0.00 | 0.00 | 87 | 1017.0 |
| 20260508130029 | 46 | 33 | 0.0 | 0.0 | 0.00 | 0.00 | 0.00 | 88 | 1017.8 |
| 20260508125903 | 45 | 33 | 0.0 | 0.0 | 0.00 | 0.00 | 0.00 | 88 | 1017.1 |
| 20260508125738 | 46 | 33 | 0.0 | 0.0 | 0.00 | 0.00 | 0.00 | 88 | 1017.0 |
| 20260508124621 | 45 | 33 | 0.0 | 0.0 | 0.00 | 0.00 | 0.00 | 89 | 1017.1 |
| 20260508124603 | 45 | 33 | 0.0 | 0.0 | 0.00 | 0.00 | 0.00 | 89 | 1017.9 |
| 20260508124111 | 44 | 33 | 0.0 | 0.0 | 0.00 | 0.00 | 0.00 | 89 | 1017.3 |
| 20260508123601 | 44 | 33 | 0.0 | 0.0 | 0.00 | 0.00 | 0.00 | 89 | 1017.4 |
| 20260508123047 | 43 | 33 | 0.0 | 0.0 | 0.00 | 0.00 | 0.00 | 89 | 1017.4 |
| 20260508123042 | 43 | 33 | 0.0 | 0.0 | 0.00 | 0.00 | 0.00 | 89 | 1018.2 |
| 20260508122536 | 42 | 33 | 0.0 | 0.0 | 0.00 | 0.00 | 0.00 | 89 | 1017.5 |
| 20260508122026 | 41 | 33 | 0.0 | 0.0 | 0.00 | 0.00 | 0.00 | 89 | 1017.6 |
| 20260508121556 | 40 | 33 | 0.0 | 0.0 | 0.00 | 0.00 | 0.00 | 89 | 1018.3 |
| 20260508121516 | 40 | 33 | 0.0 | 0.0 | 0.00 | 0.00 | 0.00 | 89 | 1017.5 |
| 20260508121006 | 40 | 33 | 0.0 | 0.0 | 0.00 | 0.00 | 0.00 | 89 | 1017.4 |
| 20260508120457 | 39 | 33 | 0.0 | 0.0 | 0.00 | 0.00 | 0.00 | 89 | 1017.3 |
| 20260508120022 | 38 | 33 | 0.0 | 0.0 | 0.00 | 0.00 | 0.00 | 89 | 1017.9 |
| 20260508115942 | 38 | 33 | 0.0 | 0.0 | 0.00 | 0.00 | 0.00 | 89 | 1017.3 |
| 20260508115434 | 37 | 33 | 0.0 | 0.0 | 0.00 | 0.00 | 0.00 | 88 | 1017.0 |
| 20260508114915 | 36 | 33 | 0.0 | 0.0 | 0.00 | 0.00 | 0.00 | 88 | 1016.9 |
| 20260508114501 | 35 | 5 | 0.0 | 0.0 | 0.00 | 0.01 | 0.00 | 88 | 1017.7 |
| 20260508114414 | 36 | 5 | 0.0 | 0.0 | 0.00 | 0.00 | 0.00 | 88 | 1016.8 |
| 20260508113914 | 35 | 5 | 0.0 | 0.0 | 0.00 | 0.00 | 0.00 | 88 | 1016.8 |
| 20260508113405 | 35 | 5 | 0.0 | 0.0 | 0.00 | 0.00 | 0.00 | 88 | 1016.9 |
| 20260508113031 | 35 | 5 | 0.0 | 0.0 | 0.00 | 0.01 | 0.00 | 88 | 1017.6 |
| 20260508112842 | 35 | 5 | 0.0 | 0.0 | 0.00 | 0.00 | 0.00 | 88 | 1016.8 |
| 20260508112332 | 35 | 5 | 0.0 | 0.0 | 0.00 | 0.00 | 0.00 | 87 | 1016.7 |
| 20260508111824 | 34 | 5 | 0.0 | 0.0 | 0.00 | 0.00 | 0.00 | 87 | 1016.5 |
| 20260508111556 | 34 | 5 | 0.0 | 0.0 | 0.00 | 0.01 | 0.00 | 87 | 1017.3 |
| 20260508111314 | 34 | 5 | 0.0 | 0.0 | 0.00 | 0.00 | 0.00 | 87 | 1016.5 |
| 20260508110755 | 34 | 5 | 0.0 | 0.0 | 0.00 | 0.00 | 0.00 | 87 | 1016.5 |
| 20260508110245 | 34 | 5 | 0.0 | 0.0 | 0.00 | 0.01 | 0.00 | 87 | 1016.5 |
| 20260508110014 | 34 | 5 | 0.0 | 0.0 | 0.00 | 0.01 | 0.00 | 87 | 1017.2 |
| 20260508105731 | 35 | 5 | 0.0 | 0.0 | 0.00 | 0.01 | 0.00 | 87 | 1016.5 |
| 20260508105220 | 35 | 5 | 0.0 | 0.0 | 0.00 | 0.01 | 0.00 | 87 | 1016.6 |
| 20260508104942 | 35 | 5 | 0.0 | 0.0 | 0.00 | 0.01 | 0.00 | 87 | 1016.4 |
| 20260508104546 | 34 | 5 | 0.0 | 0.0 | 0.00 | 0.01 | 0.00 | 87 | 1017.0 |
| 20260508104201 | 35 | 5 | 0.0 | 0.0 | 0.00 | 0.01 | 0.00 | 87 | 1016.4 |
| 20260508103652 | 35 | 5 | 0.0 | 0.0 | 0.00 | 0.01 | 0.00 | 87 | 1016.4 |
| 20260508103141 | 35 | 5 | 0.0 | 0.0 | 0.00 | 0.01 | 0.00 | 87 | 1016.4 |
| 20260508103015 | 34 | 5 | 0.0 | 0.0 | 0.00 | 0.01 | 0.00 | 87 | 1017.0 |
| 20260508102628 | 35 | 5 | 0.0 | 0.0 | 0.00 | 0.01 | 0.00 | 87 | 1016.4 |
| 20260508102116 | 35 | 5 | 0.0 | 0.0 | 0.00 | 0.01 | 0.00 | 87 | 1016.3 |
| 20260508101607 | 35 | 5 | 0.0 | 0.0 | 0.00 | 0.01 | 0.00 | 87 | 1016.3 |
| 20260508101544 | 35 | 5 | 0.0 | 0.0 | 0.00 | 0.01 | 0.00 | 87 | 1016.9 |
| 20260508101056 | 35 | 5 | 0.0 | 0.0 | 0.00 | 0.01 | 0.00 | 87 | 1016.3 |
| 20260508100546 | 35 | 5 | 0.0 | 0.0 | 0.00 | 0.01 | 0.00 | 87 | 1016.3 |
| 20260508100309 | 35 | 5 | 0.0 | 0.0 | 0.00 | 0.01 | 0.00 | 87 | 1016.2 |
| 20260508100013 | 35 | 5 | 0.0 | 0.0 | 0.00 | 0.01 | 0.00 | 87 | 1016.7 |
| 20260508095522 | 35 | 5 | 0.0 | 0.0 | 0.00 | 0.01 | 0.00 | 87 | 1016.2 |
| 20260508095012 | 35 | 5 | 0.0 | 0.0 | 0.00 | 0.01 | 0.00 | 87 | 1016.2 |
| 20260508094538 | 35 | 5 | 0.0 | 0.0 | 0.00 | 0.01 | 0.00 | 87 | 1016.6 |
| 20260508094454 | 36 | 5 | 0.0 | 0.0 | 0.00 | 0.01 | 0.00 | 87 | 1016.2 |
| 20260508093946 | 36 | 5 | 0.0 | 0.0 | 0.00 | 0.01 | 0.00 | 87 | 1016.1 |
| 20260508093434 | 36 | 5 | 0.0 | 0.0 | 0.00 | 0.01 | 0.00 | 87 | 1016.1 |
| 20260508093156 | 36 | 5 | 0.0 | 0.0 | 0.00 | 0.01 | 0.00 | 87 | 1016.1 |
| 20260508093009 | 36 | 5 | 0.0 | 0.0 | 0.00 | 0.01 | 0.00 | 87 | 1016.6 |
| 20260508092411 | 37 | 5 | 0.0 | 0.0 | 0.00 | 0.01 | 0.00 | 87 | 1016.2 |
| 20260508091859 | 37 | 5 | 0.0 | 0.0 | 0.00 | 0.01 | 0.00 | 87 | 1016.3 |
| 20260508091528 | 37 | 5 | 0.0 | 0.0 | 0.00 | 0.01 | 0.00 | 87 | 1016.6 |
| 20260508091347 | 37 | 5 | 0.0 | 0.0 | 0.00 | 0.01 | 0.00 | 87 | 1016.2 |
| 20260508091108 | 37 | 5 | 0.0 | 0.0 | 0.00 | 0.01 | 0.00 | 87 | 1016.2 |
| 20260508090327 | 37 | 5 | 0.0 | 0.0 | 0.00 | 0.01 | 0.00 | 87 | 1016.1 |
| 20260508090115 | 37 | 5 | 0.0 | 0.0 | 0.00 | 0.01 | 0.00 | 87 | 1016.4 |
| 20260508085816 | 37 | 5 | 0.0 | 0.0 | 0.00 | 0.01 | 0.00 | 87 | 1016.1 |
| 20260508085306 | 37 | 5 | 0.0 | 0.0 | 0.00 | 0.01 | 0.00 | 87 | 1016.1 |
| 20260508084752 | 38 | 5 | 0.0 | 0.0 | 0.00 | 0.01 | 0.00 | 87 | 1016.1 |
| 20260508084526 | 38 | 5 | 0.0 | 0.0 | 0.00 | 0.01 | 0.00 | 87 | 1016.5 |
| 20260508084244 | 38 | 5 | 0.0 | 0.0 | 0.00 | 0.01 | 0.00 | 87 | 1016.2 |
| 20260508083732 | 38 | 5 | 0.0 | 0.0 | 0.00 | 0.01 | 0.00 | 87 | 1016.1 |
| 20260508083224 | 38 | 5 | 0.0 | 0.0 | 0.00 | 0.01 | 0.00 | 87 | 1016.1 |
| 20260508083100 | 38 | 5 | 0.0 | 0.0 | 0.00 | 0.01 | 0.00 | 87 | 1016.4 |
| 20260508082715 | 38 | 5 | 0.0 | 0.0 | 0.00 | 0.01 | 0.00 | 87 | 1016.2 |
| 20260508082200 | 38 | 5 | 0.0 | 0.0 | 0.00 | 0.01 | 0.00 | 87 | 1016.2 |
| 20260508081651 | 38 | 5 | 0.0 | 0.0 | 0.00 | 0.01 | 0.00 | 87 | 1016.1 |
| 20260508081527 | 38 | 5 | 0.0 | 0.0 | 0.00 | 0.01 | 0.00 | 87 | 1016.3 |
| 20260508081141 | 38 | 5 | 0.0 | 0.0 | 0.00 | 0.01 | 0.00 | 87 | 1016.1 |
| 20260508080902 | 38 | 5 | 0.0 | 0.0 | 0.00 | 0.01 | 0.00 | 87 | 1016.2 |
| 20260508080120 | 38 | 5 | 0.0 | 0.0 | 0.00 | 0.01 | 0.00 | 87 | 1016.2 |
| 20260508080058 | 38 | 5 | 0.0 | 0.0 | 0.00 | 0.01 | 0.00 | 87 | 1016.4 |
| 20260508075833 | 39 | 5 | 0.0 | 0.0 | 0.00 | 0.01 | 0.00 | 87 | 1015.9 |
| 20260508075128 | 39 | 5 | 0.0 | 0.0 | 0.00 | 0.01 | 0.00 | 87 | 1015.8 |
| 20260508075043 | 39 | 5 | 0.0 | 0.0 | 0.00 | 0.01 | 0.00 | 87 | 1015.9 |
| 20260508074752 | 40 | 5 | 0.0 | 0.0 | 0.00 | 0.01 | 0.00 | 87 | 1015.7 |
| 20260508074509 | 39 | 5 | 0.0 | 0.0 | 0.00 | 0.02 | 0.00 | 87 | 1016.0 |
| 20260508074124 | 39 | 5 | 0.0 | 0.0 | 0.00 | 0.01 | 0.00 | 87 | 1015.8 |
| 20260508073237 | 40 | 5 | 0.0 | 0.0 | 0.00 | 0.01 | 0.00 | 87 | 1015.7 |
| 20260508073147 | 40 | 5 | 0.0 | 0.0 | 0.00 | 0.02 | 0.00 | 87 | 1015.8 |
| 20260508072458 | 40 | 5 | 0.0 | 1.0 | 0.00 | 0.01 | 0.00 | 87 | 1015.5 |
| 20260508071949 | 40 | 5 | 0.0 | 2.0 | 0.00 | 0.02 | 0.00 | 87 | 1015.5 |
| 20260508071531 | 40 | 5 | 0.0 | 2.0 | 0.00 | 0.02 | 0.00 | 87 | 1015.6 |
| 20260508071449 | 40 | 5 | 1.0 | 2.0 | 0.00 | 0.02 | 0.00 | 87 | 1015.7 |
| 20260508070949 | 40 | 5 | 1.0 | 2.0 | 0.00 | 0.02 | 0.00 | 87 | 1015.4 |
| 20260508070446 | 40 | 5 | 1.0 | 3.0 | 0.00 | 0.02 | 0.00 | 87 | 1015.4 |
| 20260508070018 | 40 | 5 | 0.0 | 3.0 | 0.00 | 0.02 | 0.00 | 87 | 1015.5 |
| 20260508065938 | 40 | 5 | 1.0 | 3.0 | 0.00 | 0.02 | 0.00 | 87 | 1015.4 |
| 20260508065432 | 40 | 325 | 0.0 | 3.0 | 0.00 | 0.02 | 0.00 | 87 | 1015.2 |
| 20260508064922 | 40 | 298 | 0.0 | 0.0 | 0.00 | 0.02 | 0.00 | 87 | 1015.3 |
| 20260508064503 | 40 | 298 | 0.0 | 0.0 | 0.00 | 0.04 | 0.00 | 87 | 1015.4 |
| 20260508064422 | 40 | 298 | 0.0 | 0.0 | 0.00 | 0.02 | 0.00 | 87 | 1015.3 |
| 20260508063922 | 40 | 298 | 0.0 | 0.0 | 0.00 | 0.03 | 0.00 | 87 | 1015.4 |
| 20260508063418 | 41 | 298 | 0.0 | 0.0 | 0.00 | 0.04 | 0.00 | 87 | 1015.5 |
| 20260508063107 | 41 | 298 | 0.0 | 1.0 | 0.00 | 0.04 | 0.00 | 87 | 1015.5 |
| 20260508062914 | 41 | 298 | 0.0 | 1.0 | 0.00 | 0.04 | 0.00 | 87 | 1015.5 |
| 20260508062406 | 41 | 298 | 0.0 | 2.0 | 0.00 | 0.04 | 0.00 | 87 | 1015.4 |
| 20260508061859 | 41 | 298 | 0.0 | 2.0 | 0.00 | 0.04 | 0.00 | 87 | 1015.4 |
| 20260508061536 | 41 | 298 | 0.0 | 1.0 | 0.00 | 0.04 | 0.00 | 87 | 1015.5 |
| 20260508061351 | 41 | 298 | 0.0 | 0.0 | 0.00 | 0.04 | 0.00 | 87 | 1015.4 |
| 20260508060843 | 41 | 298 | 0.0 | 0.0 | 0.00 | 0.04 | 0.00 | 87 | 1015.5 |
| 20260508060336 | 41 | 298 | 0.0 | 0.0 | 0.00 | 0.04 | 0.00 | 87 | 1015.5 |
| 20260508060016 | 41 | 298 | 0.0 | 0.0 | 0.00 | 0.04 | 0.00 | 87 | 1015.5 |
| 20260508055834 | 41 | 298 | 0.0 | 1.0 | 0.00 | 0.04 | 0.00 | 87 | 1015.7 |
| 20260508055331 | 41 | 298 | 0.0 | 2.0 | 0.00 | 0.04 | 0.00 | 87 | 1015.7 |
| 20260508054824 | 41 | 298 | 0.0 | 2.0 | 0.00 | 0.04 | 0.00 | 87 | 1015.7 |
| 20260508054505 | 41 | 298 | 0.0 | 2.0 | 0.00 | 0.04 | 0.00 | 87 | 1015.6 |
| 20260508054323 | 41 | 298 | 0.0 | 2.0 | 0.00 | 0.04 | 0.00 | 87 | 1015.8 |
| 20260508053816 | 41 | 298 | 0.0 | 1.0 | 0.00 | 0.04 | 0.00 | 87 | 1015.7 |
| 20260508053310 | 40 | 298 | 0.0 | 1.0 | 0.00 | 0.04 | 0.00 | 87 | 1015.7 |
| 20260508053043 | 40 | 298 | 0.0 | 0.0 | 0.00 | 0.04 | 0.00 | 87 | 1015.6 |
| 20260508052802 | 40 | 298 | 0.0 | 0.0 | 0.00 | 0.04 | 0.00 | 87 | 1015.7 |
| 20260508052257 | 40 | 298 | 0.0 | 0.0 | 0.00 | 0.04 | 0.00 | 87 | 1015.7 |
| 20260508051742 | 40 | 298 | 0.0 | 0.0 | 0.00 | 0.04 | 0.00 | 87 | 1015.7 |
| 20260508051516 | 40 | 298 | 0.0 | 0.0 | 0.00 | 0.04 | 0.00 | 86 | 1015.4 |
| 20260508051502 | 40 | 298 | 0.0 | 0.0 | 0.00 | 0.04 | 0.00 | 86 | 1015.5 |
| 20260508050721 | 40 | 298 | 0.0 | 0.0 | 0.00 | 0.04 | 0.00 | 86 | 1015.4 |
| 20260508050214 | 40 | 298 | 0.0 | 1.0 | 0.00 | 0.04 | 0.00 | 86 | 1015.3 |
| 20260508050049 | 40 | 298 | 0.0 | 1.0 | 0.00 | 0.04 | 0.00 | 86 | 1015.1 |
| 20260508045703 | 40 | 298 | 0.0 | 1.0 | 0.00 | 0.04 | 0.00 | 86 | 1015.4 |
| 20260508045153 | 40 | 298 | 0.0 | 1.0 | 0.00 | 0.04 | 0.00 | 86 | 1015.3 |
| 20260508044631 | 40 | 298 | 0.0 | 1.0 | 0.00 | 0.04 | 0.00 | 86 | 1015.3 |
| 20260508044507 | 40 | 298 | 0.0 | 0.0 | 0.00 | 0.04 | 0.00 | 86 | 1015.1 |
| 20260508044114 | 40 | 298 | 0.0 | 0.0 | 0.00 | 0.04 | 0.00 | 86 | 1015.2 |
| 20260508043604 | 40 | 298 | 0.0 | 0.0 | 0.00 | 0.04 | 0.00 | 86 | 1015.2 |
| 20260508043055 | 40 | 298 | 0.0 | 0.0 | 0.00 | 0.04 | 0.00 | 86 | 1015.2 |
| 20260508043033 | 40 | 298 | 0.0 | 0.0 | 0.00 | 0.04 | 0.00 | 86 | 1014.9 |
| 20260508042816 | 40 | 298 | 0.0 | 0.0 | 0.00 | 0.04 | 0.00 | 86 | 1015.0 |
| 20260508042307 | 40 | 298 | 0.0 | 0.0 | 0.00 | 0.04 | 0.00 | 86 | 1014.9 |
| 20260508041559 | 40 | 298 | 0.0 | 1.0 | 0.00 | 0.04 | 0.00 | 86 | 1014.5 |
| 20260508041519 | 40 | 298 | 0.0 | 1.0 | 0.00 | 0.04 | 0.00 | 86 | 1014.9 |
| 20260508041009 | 40 | 298 | 0.0 | 2.0 | 0.00 | 0.04 | 0.00 | 86 | 1014.9 |
| 20260508040459 | 40 | 298 | 0.0 | 2.0 | 0.00 | 0.04 | 0.00 | 86 | 1015.0 |
| 20260508040028 | 40 | 227 | 0.0 | 0.0 | 0.00 | 0.04 | 0.00 | 86 | 1014.6 |
| 20260508035950 | 41 | 227 | 0.0 | 0.0 | 0.00 | 0.04 | 0.04 | 86 | 1015.0 |
| 20260508035441 | 41 | 227 | 0.0 | 0.0 | 0.00 | 0.04 | 0.04 | 86 | 1015.0 |
| 20260508034931 | 41 | 227 | 0.0 | 0.0 | 0.00 | 0.04 | 0.04 | 85 | 1015.0 |
| 20260508034558 | 41 | 227 | 0.0 | 0.0 | 0.00 | 0.04 | 0.04 | 85 | 1014.5 |
| 20260508034416 | 41 | 227 | 0.0 | 0.0 | 0.00 | 0.04 | 0.04 | 85 | 1014.9 |
| 20260508034138 | 41 | 227 | 0.0 | 0.0 | 0.00 | 0.04 | 0.04 | 86 | 1014.9 |
| 20260508033356 | 41 | 227 | 0.0 | 0.0 | 0.00 | 0.04 | 0.04 | 85 | 1014.9 |
| 20260508033119 | 41 | 227 | 0.0 | 0.0 | 0.00 | 0.04 | 0.04 | 85 | 1014.9 |
| 20260508033028 | 41 | 227 | 0.0 | 0.0 | 0.00 | 0.04 | 0.04 | 85 | 1014.5 |
| 20260508032337 | 41 | 227 | 0.0 | 0.0 | 0.00 | 0.04 | 0.04 | 85 | 1014.9 |
| 20260508031826 | 41 | 227 | 0.0 | 0.0 | 0.00 | 0.04 | 0.04 | 85 | 1014.7 |
| 20260508031559 | 41 | 227 | 0.0 | 0.0 | 0.00 | 0.04 | 0.04 | 85 | 1014.2 |
| 20260508031323 | 42 | 227 | 0.0 | 0.0 | 0.00 | 0.04 | 0.04 | 85 | 1014.6 |
| 20260508030823 | 42 | 227 | 0.0 | 0.0 | 0.00 | 0.04 | 0.04 | 85 | 1014.6 |
| 20260508030319 | 42 | 227 | 0.0 | 0.0 | 0.00 | 0.04 | 0.04 | 85 | 1014.6 |
| 20260508030002 | 42 | 227 | 0.0 | 0.0 | 0.00 | 0.10 | 0.04 | 85 | 1014.0 |
| 20260508025821 | 42 | 227 | 0.0 | 0.0 | 0.00 | 0.04 | 0.04 | 85 | 1014.5 |
| 20260508025543 | 42 | 227 | 0.0 | 0.0 | 0.00 | 0.04 | 0.04 | 85 | 1014.6 |
| 20260508025033 | 42 | 227 | 0.0 | 0.0 | 0.00 | 0.04 | 0.04 | 85 | 1014.6 |
| 20260508024917 | 42 | 227 | 0.0 | 0.0 | 0.00 | 0.06 | 0.04 | 84 | 1014.5 |
| 20260508024546 | 42 | 227 | 0.0 | 0.0 | 0.00 | 0.10 | 0.04 | 84 | 1014.0 |
| 20260508023803 | 42 | 227 | 0.0 | 0.0 | 0.00 | 0.06 | 0.04 | 84 | 1014.5 |
| 20260508023304 | 42 | 227 | 0.0 | 0.0 | 0.00 | 0.06 | 0.04 | 84 | 1014.3 |
| 20260508023040 | 42 | 227 | 0.0 | 0.0 | 0.00 | 0.10 | 0.04 | 84 | 1013.8 |
| 20260508022754 | 43 | 227 | 0.0 | 0.0 | 0.00 | 0.07 | 0.04 | 84 | 1014.4 |
| 20260508022245 | 43 | 227 | 0.0 | 0.0 | 0.00 | 0.07 | 0.04 | 84 | 1014.3 |
| 20260508021734 | 43 | 227 | 0.0 | 0.0 | 0.00 | 0.08 | 0.04 | 84 | 1014.3 |
| 20260508021507 | 43 | 227 | 0.0 | 0.0 | 0.00 | 0.10 | 0.04 | 84 | 1013.7 |
| 20260508021220 | 43 | 227 | 0.0 | 0.0 | 0.00 | 0.08 | 0.04 | 84 | 1014.2 |
| 20260508020711 | 43 | 227 | 0.0 | 0.0 | 0.00 | 0.08 | 0.04 | 84 | 1013.9 |
| 20260508020704 | 43 | 227 | 0.0 | 0.0 | 0.00 | 0.09 | 0.04 | 84 | 1014.0 |
| 20260508020045 | 43 | 227 | 0.0 | 0.0 | 0.00 | 0.10 | 0.04 | 84 | 1013.4 |
| 20260508015652 | 44 | 227 | 0.0 | 0.0 | 0.00 | 0.10 | 0.04 | 84 | 1014.0 |
| 20260508015141 | 44 | 227 | 0.0 | 0.0 | 0.00 | 0.10 | 0.04 | 83 | 1013.9 |
| 20260508014630 | 44 | 227 | 0.0 | 0.0 | 0.00 | 0.10 | 0.04 | 83 | 1013.8 |
| 20260508014504 | 44 | 227 | 0.0 | 0.0 | 0.00 | 0.20 | 0.04 | 83 | 1013.2 |
| 20260508014115 | 44 | 227 | 0.0 | 0.0 | 0.00 | 0.10 | 0.04 | 83 | 1013.6 |
| 20260508013604 | 44 | 227 | 0.0 | 2.0 | 0.00 | 0.10 | 0.04 | 82 | 1013.5 |
| 20260508013317 | 45 | 227 | 1.0 | 2.0 | 0.00 | 0.10 | 0.04 | 82 | 1013.5 |
| 20260508013024 | 45 | 227 | 0.0 | 2.0 | 0.00 | 0.20 | 0.04 | 82 | 1012.8 |
| 20260508012538 | 45 | 227 | 0.0 | 2.0 | 0.00 | 0.14 | 0.04 | 82 | 1013.4 |
| 20260508012027 | 46 | 227 | 0.0 | 1.0 | 0.00 | 0.17 | 0.04 | 82 | 1013.1 |
| 20260508011736 | 46 | 227 | 0.0 | 2.0 | 0.00 | 0.19 | 0.04 | 81 | 1013.1 |
| 20260508011611 | 46 | 227 | 0.0 | 2.0 | 0.00 | 0.18 | 0.04 | 82 | 1013.2 |
| 20260508011605 | 46 | 227 | 0.0 | 2.0 | 0.00 | 0.20 | 0.04 | 82 | 1012.5 |
| 20260508010451 | 46 | 227 | 0.0 | 1.0 | 0.00 | 0.20 | 0.04 | 80 | 1013.1 |
| 20260508010020 | 47 | 227 | 0.0 | 1.0 | 0.00 | 0.20 | 0.04 | 80 | 1012.1 |
| 20260508005940 | 47 | 227 | 0.0 | 1.0 | 0.00 | 0.20 | 0.04 | 80 | 1013.0 |
| 20260508005431 | 47 | 227 | 0.0 | 1.0 | 0.00 | 0.20 | 0.04 | 79 | 1012.8 |
| 20260508004923 | 48 | 227 | 0.0 | 0.0 | 0.00 | 0.20 | 0.04 | 79 | 1012.8 |
| 20260508004559 | 48 | 227 | 0.0 | 0.0 | 0.00 | 0.20 | 0.04 | 79 | 1012.0 |
| 20260508004411 | 48 | 227 | 0.0 | 0.0 | 0.00 | 0.20 | 0.04 | 79 | 1012.8 |
| 20260508003856 | 48 | 227 | 0.0 | 2.0 | 0.00 | 0.20 | 0.04 | 78 | 1012.6 |
| 20260508003347 | 49 | 227 | 1.0 | 2.0 | 0.00 | 0.20 | 0.04 | 78 | 1012.7 |
| 20260508003018 | 49 | 227 | 0.0 | 2.0 | 0.00 | 0.20 | 0.04 | 76 | 1011.8 |
| 20260508002837 | 50 | 227 | 0.0 | 2.0 | 0.00 | 0.20 | 0.04 | 76 | 1012.6 |
| 20260508002327 | 50 | 227 | 0.0 | 1.0 | 0.00 | 0.20 | 0.04 | 74 | 1012.6 |
| 20260508001818 | 51 | 227 | 0.0 | 1.0 | 0.00 | 0.20 | 0.04 | 73 | 1012.7 |
| 20260508001809 | 51 | 227 | 0.0 | 1.0 | 0.00 | 0.20 | 0.04 | 71 | 1012.6 |
| 20260508001550 | 51 | 227 | 0.0 | 0.0 | 0.00 | 0.20 | 0.04 | 72 | 1011.7 |
| 20260508000752 | 52 | 227 | 0.0 | 1.0 | 0.00 | 0.20 | 0.04 | 71 | 1012.6 |
| 20260508000243 | 52 | 227 | 0.0 | 1.0 | 0.00 | 0.20 | 0.04 | 70 | 1012.6 |
| 20260508000015 | 52 | 227 | 0.0 | 1.0 | 0.00 | 0.20 | 0.04 | 69 | 1011.7 |
| 20260508000003 | 53 | 227 | 0.0 | 0.0 | 0.00 | 0.20 | 0.04 | 69 | 1012.7 |
| 20260507235224 | 53 | 227 | 1.0 | 2.0 | 0.00 | 0.20 | 0.04 | 68 | 1012.6 |
| 20260507234715 | 53 | 227 | 1.0 | 4.0 | 0.00 | 0.20 | 0.04 | 68 | 1012.7 |
| 20260507234550 | 53 | 227 | 0.0 | 4.0 | 0.00 | 0.20 | 0.04 | 67 | 1011.7 |
| 20260507234205 | 53 | 227 | 1.0 | 4.0 | 0.00 | 0.20 | 0.04 | 67 | 1012.6 |
| 20260507233651 | 54 | 248 | 1.0 | 3.0 | 0.00 | 0.20 | 0.04 | 66 | 1012.6 |
| 20260507233139 | 54 | 222 | 1.0 | 7.0 | 0.00 | 0.20 | 0.04 | 66 | 1012.4 |
| 20260507233117 | 54 | 222 | 1.0 | 7.0 | 0.00 | 0.20 | 0.04 | 65 | 1011.5 |
| 20260507232634 | 54 | 240 | 1.0 | 7.0 | 0.00 | 0.20 | 0.04 | 65 | 1012.4 |
| 20260507232131 | 54 | 245 | 2.0 | 7.0 | 0.00 | 0.20 | 0.04 | 64 | 1012.4 |
| 20260507231622 | 55 | 255 | 2.0 | 7.0 | 0.00 | 0.20 | 0.04 | 64 | 1012.6 |
| 20260507231601 | 54 | 246 | 1.0 | 7.0 | 0.00 | 0.20 | 0.04 | 65 | 1011.6 |
| 20260507231350 | 55 | 237 | 2.0 | 8.0 | 0.00 | 0.20 | 0.04 | 65 | 1012.6 |
| 20260507230610 | 55 | 248 | 3.0 | 8.0 | 0.00 | 0.20 | 0.04 | 65 | 1012.4 |
| 20260507230108 | 55 | 246 | 2.0 | 8.0 | 0.00 | 0.20 | 0.04 | 65 | 1012.4 |
| 20260507225602 | 55 | 281 | 2.0 | 9.0 | 0.00 | 0.20 | 0.04 | 65 | 1012.4 |
| 20260507225329 | 55 | 241 | 2.0 | 9.0 | 0.00 | 0.20 | 0.04 | 65 | 1012.4 |
| 20260507224551 | 55 | 226 | 2.0 | 7.0 | 0.00 | 0.20 | 0.04 | 65 | 1012.4 |
| 20260507224527 | 55 | 226 | 1.0 | 7.0 | 0.00 | 0.20 | 0.04 | 65 | 1011.4 |
| 20260507224044 | 55 | 254 | 2.0 | 9.0 | 0.00 | 0.20 | 0.04 | 66 | 1012.2 |
| 20260507223520 | 55 | 261 | 2.0 | 9.0 | 0.00 | 0.20 | 0.04 | 66 | 1012.2 |
| 20260507223051 | 55 | 325 | 0.0 | 4.0 | 0.00 | 0.20 | 0.04 | 66 | 1011.2 |
| 20260507223019 | 55 | 325 | 1.0 | 4.0 | 0.00 | 0.20 | 0.04 | 66 | 1012.2 |
| 20260507222525 | 55 | 246 | 1.0 | 3.0 | 0.00 | 0.20 | 0.04 | 67 | 1012.0 |
| 20260507222519 | 55 | 266 | 1.0 | 4.0 | 0.00 | 0.20 | 0.04 | 66 | 1012.1 |
| 20260507221744 | 55 | 225 | 1.0 | 3.0 | 0.00 | 0.20 | 0.04 | 68 | 1012.0 |
| 20260507221506 | 55 | 246 | 1.0 | 3.0 | 0.00 | 0.20 | 0.04 | 68 | 1011.0 |
| 20260507221007 | 55 | 282 | 2.0 | 12.0 | 0.00 | 0.20 | 0.04 | 66 | 1012.1 |
| 20260507220457 | 55 | 316 | 3.0 | 12.0 | 0.00 | 0.20 | 0.04 | 64 | 1011.9 |
| 20260507220036 | 55 | 321 | 1.0 | 13.0 | 0.00 | 0.20 | 0.04 | 66 | 1010.9 |
| 20260507215950 | 55 | 323 | 3.0 | 13.0 | 0.00 | 0.20 | 0.04 | 65 | 1012.0 |
| 20260507215446 | 55 | 256 | 3.0 | 13.0 | 0.00 | 0.20 | 0.04 | 67 | 1011.9 |
| 20260507214942 | 54 | 264 | 2.0 | 10.0 | 0.00 | 0.20 | 0.04 | 66 | 1011.9 |
| 20260507214530 | 55 | 214 | 1.0 | 10.0 | 0.00 | 0.20 | 0.04 | 66 | 1010.8 |
| 20260507214435 | 55 | 321 | 2.0 | 10.0 | 0.00 | 0.20 | 0.04 | 66 | 1012.0 |
| 20260507213932 | 55 | 277 | 2.0 | 10.0 | 0.00 | 0.20 | 0.04 | 65 | 1011.8 |
| 20260507213649 | 55 | 260 | 2.0 | 4.0 | 0.00 | 0.20 | 0.04 | 69 | 1011.8 |
| 20260507213058 | 55 | 290 | 1.0 | 11.0 | 0.00 | 0.20 | 0.04 | 69 | 1010.8 |
| 20260507212917 | 55 | 312 | 3.0 | 12.0 | 0.00 | 0.20 | 0.04 | 71 | 1011.8 |
| 20260507212415 | 55 | 215 | 3.0 | 12.0 | 0.00 | 0.20 | 0.04 | 68 | 1011.7 |
| 20260507211906 | 55 | 257 | 4.0 | 8.0 | 0.00 | 0.20 | 0.04 | 71 | 1011.7 |
| 20260507211547 | 55 | 258 | 3.0 | 8.0 | 0.00 | 0.20 | 0.04 | 72 | 1010.5 |
| 20260507211357 | 54 | 227 | 3.0 | 8.0 | 0.00 | 0.20 | 0.04 | 71 | 1011.7 |
| 20260507210850 | 54 | 243 | 2.0 | 9.0 | 0.00 | 0.20 | 0.04 | 72 | 1011.7 |
| 20260507210345 | 53 | 260 | 2.0 | 9.0 | 0.00 | 0.20 | 0.04 | 72 | 1011.7 |
| 20260507210015 | 53 | 248 | 4.0 | 9.0 | 0.00 | 0.20 | 0.04 | 73 | 1010.5 |
| 20260507205833 | 53 | 227 | 3.0 | 10.0 | 0.00 | 0.20 | 0.04 | 73 | 1011.7 |
| 20260507205323 | 52 | 250 | 3.0 | 10.0 | 0.00 | 0.20 | 0.04 | 74 | 1011.8 |
| 20260507204814 | 52 | 240 | 3.0 | 11.0 | 0.00 | 0.20 | 0.04 | 74 | 1011.8 |
| 20260507204547 | 52 | 248 | 1.0 | 11.0 | 0.00 | 0.20 | 0.04 | 75 | 1010.6 |
| 20260507204305 | 52 | 234 | 2.0 | 11.0 | 0.00 | 0.20 | 0.04 | 75 | 1011.7 |
| 20260507203753 | 52 | 222 | 1.0 | 4.0 | 0.00 | 0.20 | 0.04 | 76 | 1011.8 |
| 20260507203239 | 52 | 234 | 2.0 | 7.0 | 0.00 | 0.20 | 0.04 | 76 | 1011.9 |
| 20260507203021 | 52 | 264 | 0.0 | 7.0 | 0.00 | 0.20 | 0.04 | 75 | 1010.6 |
| 20260507202730 | 52 | 246 | 1.0 | 7.0 | 0.00 | 0.20 | 0.04 | 76 | 1011.7 |
| 20260507202220 | 52 | 254 | 1.0 | 7.0 | 0.00 | 0.20 | 0.04 | 77 | 1011.7 |
| 20260507201941 | 52 | 239 | 1.0 | 7.0 | 0.00 | 0.20 | 0.04 | 76 | 1011.7 |
| 20260507201550 | 52 | 239 | 2.0 | 6.0 | 0.00 | 0.20 | 0.04 | 76 | 1010.4 |
| 20260507201200 | 52 | 227 | 0.0 | 3.0 | 0.00 | 0.20 | 0.04 | 77 | 1011.7 |
| 20260507200649 | 52 | 234 | 1.0 | 6.0 | 0.00 | 0.20 | 0.04 | 77 | 1011.7 |
| 20260507200135 | 52 | 321 | 2.0 | 6.0 | 0.00 | 0.20 | 0.04 | 77 | 1011.6 |
| 20260507200010 | 52 | 272 | 1.0 | 6.0 | 0.00 | 0.20 | 0.04 | 77 | 1010.5 |
| 20260507195618 | 52 | 238 | 1.0 | 7.0 | 0.00 | 0.20 | 0.04 | 76 | 1011.8 |
| 20260507195108 | 52 | 245 | 1.0 | 7.0 | 0.00 | 0.20 | 0.04 | 77 | 1011.8 |
| 20260507194559 | 52 | 235 | 1.0 | 4.0 | 0.00 | 0.20 | 0.04 | 77 | 1011.7 |
| 20260507194536 | 51 | 235 | 0.0 | 4.0 | 0.00 | 0.20 | 0.04 | 77 | 1010.4 |
| 20260507194319 | 51 | 235 | 2.0 | 4.0 | 0.00 | 0.20 | 0.04 | 77 | 1011.8 |
| 20260507193538 | 51 | 244 | 1.0 | 4.0 | 0.00 | 0.20 | 0.04 | 77 | 1011.8 |
| 20260507193023 | 51 | 257 | 0.0 | 3.0 | 0.00 | 0.20 | 0.04 | 78 | 1011.9 |
| 20260507193001 | 51 | 257 | 0.0 | 3.0 | 0.00 | 0.20 | 0.04 | 78 | 1010.7 |
| 20260507192513 | 51 | 241 | 1.0 | 7.0 | 0.00 | 0.20 | 0.04 | 77 | 1011.9 |
| 20260507191955 | 51 | 241 | 2.0 | 7.0 | 0.00 | 0.20 | 0.04 | 77 | 1012.0 |
| 20260507191525 | 51 | 229 | 1.0 | 6.0 | 0.00 | 0.20 | 0.04 | 77 | 1010.9 |
| 20260507191445 | 51 | 287 | 1.0 | 6.0 | 0.00 | 0.20 | 0.04 | 77 | 1012.2 |
| 20260507190927 | 51 | 267 | 1.0 | 6.0 | 0.00 | 0.20 | 0.04 | 77 | 1012.2 |
| 20260507190417 | 51 | 304 | 2.0 | 7.0 | 0.00 | 0.20 | 0.04 | 78 | 1012.2 |
| 20260507190135 | 51 | 263 | 2.0 | 7.0 | 0.00 | 0.20 | 0.04 | 78 | 1012.3 |
| 20260507190054 | 51 | 212 | 1.0 | 7.0 | 0.00 | 0.20 | 0.04 | 78 | 1011.0 |
| 20260507185353 | 51 | 234 | 2.0 | 5.0 | 0.00 | 0.20 | 0.04 | 78 | 1012.3 |
| 20260507184844 | 51 | 242 | 1.0 | 5.0 | 0.00 | 0.20 | 0.04 | 78 | 1012.3 |
| 20260507184521 | 51 | 327 | 0.0 | 4.0 | 0.00 | 0.20 | 0.04 | 78 | 1011.0 |
| 20260507184334 | 51 | 328 | 1.0 | 5.0 | 0.00 | 0.20 | 0.04 | 78 | 1012.3 |
| 20260507184057 | 51 | 314 | 1.0 | 5.0 | 0.00 | 0.20 | 0.04 | 79 | 1012.1 |
| 20260507183326 | 51 | 78 | 1.0 | 3.0 | 0.00 | 0.20 | 0.04 | 79 | 1012.2 |
| 20260507183056 | 51 | 242 | 0.0 | 3.0 | 0.00 | 0.20 | 0.04 | 79 | 1011.0 |
| 20260507182812 | 51 | 242 | 1.0 | 3.0 | 0.00 | 0.20 | 0.04 | 78 | 1012.2 |
| 20260507182301 | 51 | 263 | 1.0 | 3.0 | 0.00 | 0.20 | 0.04 | 79 | 1012.2 |
| 20260507181751 | 51 | 231 | 1.0 | 3.0 | 0.00 | 0.20 | 0.04 | 78 | 1012.1 |
| 20260507181525 | 51 | 219 | 0.0 | 3.0 | 0.00 | 0.20 | 0.04 | 79 | 1010.7 |
| 20260507181243 | 51 | 219 | 1.0 | 3.0 | 0.00 | 0.20 | 0.04 | 79 | 1012.0 |
| 20260507180723 | 51 | 200 | 1.0 | 3.0 | 0.00 | 0.20 | 0.04 | 79 | 1012.0 |
| 20260507180214 | 52 | 225 | 1.0 | 2.0 | 0.00 | 0.20 | 0.04 | 79 | 1012.1 |
| 20260507180045 | 51 | 225 | 1.0 | 3.0 | 0.00 | 0.20 | 0.04 | 79 | 1010.7 |
| 20260507175659 | 52 | 292 | 2.0 | 7.0 | 0.00 | 0.20 | 0.04 | 79 | 1012.0 |
| 20260507175151 | 52 | 252 | 2.0 | 8.0 | 0.00 | 0.20 | 0.04 | 79 | 1012.0 |
| 20260507174910 | 52 | 236 | 2.0 | 8.0 | 0.00 | 0.20 | 0.04 | 79 | 1011.9 |
| 20260507174523 | 52 | 236 | 0.0 | 8.0 | 0.00 | 0.20 | 0.04 | 79 | 1010.6 |
| 20260507174130 | 52 | 232 | 1.0 | 5.0 | 0.00 | 0.20 | 0.04 | 79 | 1011.7 |
| 20260507173619 | 52 | 261 | 1.0 | 6.0 | 0.00 | 0.20 | 0.04 | 79 | 1011.9 |
| 20260507173116 | 52 | 265 | 1.0 | 7.0 | 0.00 | 0.20 | 0.04 | 78 | 1010.5 |
| 20260507173109 | 52 | 265 | 1.0 | 7.0 | 0.00 | 0.20 | 0.04 | 78 | 1011.9 |
| 20260507172556 | 52 | 259 | 1.0 | 7.0 | 0.00 | 0.20 | 0.04 | 79 | 1011.9 |
| 20260507172045 | 53 | 296 | 2.0 | 5.0 | 0.00 | 0.20 | 0.04 | 80 | 1011.9 |
| 20260507171536 | 52 | 240 | 1.0 | 5.0 | 0.00 | 0.20 | 0.04 | 80 | 1011.7 |
| 20260507171521 | 52 | 240 | 1.0 | 5.0 | 0.00 | 0.20 | 0.04 | 80 | 1010.3 |
| 20260507171025 | 52 | 289 | 2.0 | 8.0 | 0.00 | 0.20 | 0.04 | 81 | 1011.9 |
| 20260507170515 | 52 | 257 | 2.0 | 8.0 | 0.00 | 0.20 | 0.04 | 81 | 1011.7 |
| 20260507170047 | 52 | 240 | 2.0 | 7.0 | 0.00 | 0.20 | 0.04 | 81 | 1010.4 |
| 20260507170005 | 53 | 225 | 1.0 | 5.0 | 0.00 | 0.20 | 0.04 | 81 | 1011.7 |
| 20260507165444 | 53 | 278 | 1.0 | 4.0 | 0.00 | 0.20 | 0.04 | 81 | 1011.7 |
| 20260507164934 | 53 | 260 | 1.0 | 4.0 | 0.00 | 0.20 | 0.04 | 80 | 1011.9 |
| 20260507164504 | 53 | 263 | 1.0 | 4.0 | 0.00 | 0.22 | 0.04 | 81 | 1010.3 |
| 20260507164424 | 53 | 277 | 1.0 | 3.0 | 0.00 | 0.20 | 0.04 | 80 | 1011.7 |
| 20260507163913 | 53 | 286 | 1.0 | 3.0 | 0.00 | 0.20 | 0.04 | 80 | 1011.6 |
| 20260507163403 | 54 | 242 | 0.0 | 3.0 | 0.00 | 0.20 | 0.04 | 81 | 1011.7 |
| 20260507163038 | 54 | 242 | 0.0 | 3.0 | 0.00 | 0.22 | 0.04 | 81 | 1010.2 |
| 20260507162853 | 54 | 315 | 0.0 | 2.0 | 0.00 | 0.20 | 0.04 | 82 | 1011.6 |
| 20260507162339 | 54 | 259 | 1.0 | 2.0 | 0.00 | 0.20 | 0.04 | 83 | 1011.6 |
| 20260507161830 | 53 | 5 | 1.0 | 2.0 | 0.00 | 0.20 | 0.04 | 82 | 1011.6 |
| 20260507161501 | 53 | 221 | 0.0 | 2.0 | 0.00 | 0.22 | 0.04 | 83 | 1010.1 |
| 20260507161320 | 53 | 223 | 0.0 | 2.0 | 0.00 | 0.20 | 0.04 | 83 | 1011.6 |
| 20260507160809 | 53 | 312 | 1.0 | 4.0 | 0.00 | 0.21 | 0.04 | 84 | 1011.6 |
| 20260507160259 | 53 | 229 | 1.0 | 4.0 | 0.00 | 0.21 | 0.04 | 83 | 1011.6 |
| 20260507160035 | 52 | 225 | 2.0 | 4.0 | 0.00 | 0.22 | 0.04 | 83 | 1010.2 |
| 20260507155750 | 53 | 238 | 1.0 | 3.0 | 0.00 | 0.22 | 0.04 | 84 | 1011.7 |
| 20260507155235 | 52 | 225 | 1.0 | 3.0 | 0.00 | 0.22 | 0.04 | 83 | 1011.5 |
| 20260507154726 | 52 | 265 | 0.0 | 1.0 | 0.00 | 0.25 | 0.04 | 85 | 1011.6 |
| 20260507154601 | 52 | 265 | 0.0 | 2.0 | 0.00 | 0.27 | 0.04 | 84 | 1010.2 |
| 20260507154214 | 52 | 265 | 1.0 | 3.0 | 0.00 | 0.26 | 0.04 | 84 | 1011.6 |
| 20260507153709 | 52 | 237 | 1.0 | 3.0 | 0.00 | 0.26 | 0.04 | 84 | 1011.7 |
| 20260507153202 | 52 | 238 | 1.0 | 3.0 | 0.00 | 0.27 | 0.04 | 84 | 1011.8 |
| 20260507153036 | 51 | 238 | 2.0 | 3.0 | 0.00 | 0.27 | 0.04 | 84 | 1010.3 |
| 20260507152655 | 51 | 65 | 1.0 | 2.0 | 0.00 | 0.27 | 0.04 | 84 | 1011.9 |
| 20260507152145 | 51 | 65 | 1.0 | 2.0 | 0.00 | 0.27 | 0.04 | 84 | 1011.7 |
| 20260507151911 | 51 | 65 | 1.0 | 2.0 | 0.00 | 0.27 | 0.04 | 84 | 1011.8 |
| 20260507151520 | 51 | 65 | 1.0 | 2.0 | 0.00 | 0.27 | 0.04 | 84 | 1010.3 |
| 20260507151137 | 51 | 61 | 1.0 | 5.0 | 0.00 | 0.27 | 0.04 | 84 | 1011.8 |
| 20260507150906 | 51 | 345 | 1.0 | 5.0 | 0.00 | 0.27 | 0.04 | 84 | 1011.8 |
| 20260507150121 | 51 | 328 | 2.0 | 5.0 | 0.00 | 0.27 | 0.04 | 83 | 1011.8 |
| 20260507150100 | 51 | 328 | 2.0 | 5.0 | 0.00 | 0.27 | 0.04 | 83 | 1010.2 |
| 20260507145619 | 52 | 24 | 1.0 | 5.0 | 0.00 | 0.27 | 0.04 | 84 | 1012.0 |
| 20260507145111 | 52 | 345 | 2.0 | 6.0 | 0.00 | 0.27 | 0.04 | 83 | 1012.2 |
| 20260507144607 | 53 | 332 | 2.0 | 6.0 | 0.00 | 0.27 | 0.04 | 84 | 1012.1 |
| 20260507144545 | 52 | 332 | 2.0 | 6.0 | 0.00 | 0.27 | 0.04 | 84 | 1010.6 |
| 20260507144101 | 53 | 318 | 2.0 | 6.0 | 0.00 | 0.27 | 0.04 | 83 | 1011.9 |
| 20260507143555 | 53 | 338 | 2.0 | 6.0 | 0.00 | 0.27 | 0.04 | 83 | 1011.8 |
| 20260507143055 | 53 | 335 | 1.0 | 4.0 | 0.00 | 0.27 | 0.04 | 83 | 1011.8 |
| 20260507143038 | 53 | 335 | 1.0 | 4.0 | 0.00 | 0.27 | 0.04 | 83 | 1010.2 |
| 20260507142545 | 53 | 317 | 1.0 | 3.0 | 0.00 | 0.27 | 0.04 | 84 | 1011.6 |
| 20260507142038 | 53 | 317 | 2.0 | 5.0 | 0.00 | 0.27 | 0.04 | 84 | 1011.6 |
| 20260507141536 | 53 | 327 | 2.0 | 5.0 | 0.00 | 0.27 | 0.04 | 84 | 1011.6 |
| 20260507141520 | 53 | 327 | 0.0 | 5.0 | 0.00 | 0.27 | 0.04 | 84 | 1010.0 |
| 20260507141025 | 53 | 323 | 1.0 | 5.0 | 0.00 | 0.27 | 0.04 | 83 | 1011.5 |
| 20260507140519 | 53 | 338 | 2.0 | 5.0 | 0.00 | 0.27 | 0.04 | 84 | 1011.6 |
| 20260507140017 | 53 | 328 | 2.0 | 5.0 | 0.00 | 0.27 | 0.04 | 83 | 1011.7 |
| 20260507140013 | 53 | 328 | 2.0 | 5.0 | 0.00 | 0.27 | 0.04 | 83 | 1010.0 |